User: anonymous   Login
Location: Caltech
(34.1382°N, 118.1253°W)
Time: 01:23:15
(UTC-07:00)
Language:

ASTRO E2 - Orbit

View from above orbital plane
View from above orbital plane
View from above satellite
View from above satellite

Ground track
Ground track

The orbit data is extracted from the following two-line orbital elements,

1 28773U 05025A   17116.82822678 +.00002056 +00000-0 +10082-3 0  9995
2 28773 031.3831 269.4613 0004773 194.2349 165.8164 15.15713291649579
Epoch (UTC): 26 April 2017 19:52:38
Eccentricity: 0.0004773
inclination: 31.3831°
perigee height: 515 km
apogee height: 522 km
right ascension of ascending node: 269.4613°
argument of perigee: 194.2349°
revolutions per day: 15.15713291
mean anomaly at epoch: 165.8164°
orbit number at epoch: 64957

The dashed part of the orbit path shows where the satellite is in the earth's shadow,  

DLR